Погода в Дорохое

Румыния     47°57′04″N   26°23′56″E
темп.,
°C
ветер,
м/с
пор.,
м/с
влажн.,
%
обл.,
%
осадки,
мм/ч
давл.,
гПа
погр.,
м
31 июля, сб
сб3100:00+22юв217011 0.1 101111
03:00+20ююв11820 0.3 101111
06:00+19ю11860 0.0 101111
09:00+23ююв12700 0.0 1011305
12:00+28юв32555 0.0 1011957
15:00+30в11435 0.0 10101724
18:00+30в32410 0.0 10091372
21:00+25юв22560 0.0 100911
1 августа, вс
вс100:00+21ю22735 0.4 100917
03:00+20юз227974 0.4 100914
06:00+18зсз512947 0.0 1011353
09:00+22сз58760 0.0 1012500
12:00+26ссз34580 0.0 1012814
15:00+30св21440 0.0 1010949
18:00+30юв45440 0.0 10091034
21:00+25юв356322 0.0 100871
2 августа, пн
пн200:00+19сз71586100 1.1 1010299
03:00+19юз358499 1.1 100991
06:00+18ююв3490100 0.1 100878
09:00+23ю34705 0.1 1007293
12:00+30ююз155339 0.0 1006432
15:00+33з79297 0.0 10062263
18:00+27сз79570 0.0 1008663
21:00+20ссз611730 0.0 1011591
3 августа, вт
вт300:00+16сз34830 0.0 101498
03:00+15зсз24895 0.0 101566
06:00+14зсз119163 0.0 101612
09:00+19ссз11700 0.0 1017452
12:00+23ссз22512 0.0 10171157
15:00+25ссв3245100 0.0 10161371
18:00+25ссв324771 0.0 10161206
21:00+20св22665 0.3 101711
4 августа, ср
ср400:00+18ю12728 0.1 101711
03:00+17юв1176100 0.1 101611
06:00+16юв2284100 0.1 101613
09:00+19вюв497698 0.5 1015415
12:00+19юв61287100 0.9 1014613
15:00+27юв895380 0.9 10111159
18:00+28ююв775078 0.0 10091163
21:00+20ююв4687100 0.4 1009134